• In Hungary
  • List of Countries
  • For 7 days
  • Water Temperature
  • Satellite Maps
  • Weather Map
  • News
  • Weather Widgets
  • user-avatar
    Login

    Hourly Weather Lubumbashi

    Today, 19 September, Wednesday

    Time Temperature Precipitation Wind Pressure Humidity
    00:00 +32°C° 0.3 mm 5 mps 718 mmHg 53%
    01:00 +32°C° 0.3 mm 4 mps 718 mmHg 57%
    02:00 +30°C° 0.3 mm 4 mps 719 mmHg 62%
    03:00 +29°C° 0 mm 4 mps 719 mmHg 63%
    04:00 +29°C° 0 mm 4 mps 719 mmHg 65%
    05:00 +29°C° 0 mm 5 mps 719 mmHg 67%
    06:00 +29°C° 0 mm 4 mps 719 mmHg 66%
    07:00 +29°C° 0 mm 4 mps 719 mmHg 65%
    08:00 +29°C° 0 mm 4 mps 719 mmHg 65%
    09:00 +32°C° 0 mm 4 mps 720 mmHg 58%
    10:00 +33°C° 0 mm 4 mps 720 mmHg 52%
    11:00 +35°C° 0 mm 4 mps 720 mmHg 45%
    12:00 +36°C° 0 mm 3 mps 719 mmHg 42%
    13:00 +37°C° 0 mm 3 mps 719 mmHg 39%
    14:00 +38°C° 0 mm 2 mps 718 mmHg 35%
    15:00 +38°C° 0 mm 2 mps 718 mmHg 36%
    16:00 +37°C° 0 mm 2 mps 717 mmHg 36%
    17:00 +37°C° 0 mm 2 mps 717 mmHg 36%
    18:00 +36°C° 0 mm 2 mps 717 mmHg 38%
    19:00 +36°C° 0 mm 2 mps 718 mmHg 40%
    20:00 +35°C° 0 mm 2 mps 718 mmHg 42%
    21:00 +35°C° 0 mm 2 mps 718 mmHg 43%
    22:00 +34°C° 0 mm 2 mps 718 mmHg 45%
    23:00 +34°C° 0 mm 2 mps 718 mmHg 46%

    Tomorrow, 20 September, Thursday

    Time Temperature Precipitation Wind Pressure Humidity
    00:00 +32°C° 0 mm 2 mps 718 mmHg 48%
    01:00 +31°C° 0 mm 3 mps 718 mmHg 51%
    02:00 +31°C° 0 mm 3 mps 718 mmHg 53%
    03:00 +30°C° 0.3 mm 3 mps 718 mmHg 58%
    04:00 +29°C° 0.3 mm 4 mps 718 mmHg 63%
    05:00 +28°C° 0.3 mm 5 mps 718 mmHg 68%
    06:00 +28°C° 0 mm 5 mps 719 mmHg 68%
    07:00 +29°C° 0 mm 4 mps 719 mmHg 68%
    08:00 +29°C° 0 mm 4 mps 720 mmHg 68%
    09:00 +30°C° 0 mm 4 mps 720 mmHg 62%
    10:00 +33°C° 0 mm 3 mps 720 mmHg 56%
    11:00 +34°C° 0 mm 3 mps 720 mmHg 49%
    12:00 +35°C° 0 mm 2 mps 719 mmHg 45%
    13:00 +35°C° 0 mm 1 mps 718 mmHg 41%
    14:00 +36°C° 0 mm 1 mps 718 mmHg 37%
    15:00 +36°C° 0 mm 1 mps 717 mmHg 37%
    16:00 +37°C° 0 mm 1 mps 717 mmHg 36%
    17:00 +37°C° 0 mm 1 mps 716 mmHg 36%
    18:00 +36°C° 0.2 mm 2 mps 717 mmHg 39%
    19:00 +35°C° 0.2 mm 3 mps 717 mmHg 42%
    20:00 +34°C° 0.2 mm 3 mps 717 mmHg 45%
    21:00 +34°C° 0 mm 3 mps 717 mmHg 46%
    22:00 +34°C° 0 mm 3 mps 718 mmHg 46%
    23:00 +33°C° 0 mm 3 mps 718 mmHg 47%

    Day after tomorrow, 21 September, Friday

    Time Temperature Precipitation Wind Pressure Humidity
    00:00 +33°C° 0 mm 3 mps 718 mmHg 49%
    01:00 +31°C° 0 mm 3 mps 717 mmHg 51%
    02:00 +31°C° 0 mm 3 mps 717 mmHg 52%
    03:00 +30°C° 0.2 mm 3 mps 717 mmHg 56%
    04:00 +30°C° 0.2 mm 3 mps 717 mmHg 59%
    05:00 +29°C° 0.2 mm 3 mps 717 mmHg 62%
    06:00 +29°C° 1.3 mm 3 mps 718 mmHg 63%
    07:00 +29°C° 1.3 mm 3 mps 719 mmHg 64%
    08:00 +29°C° 1.3 mm 3 mps 719 mmHg 66%
    09:00 +30°C° 0 mm 3 mps 719 mmHg 61%
    10:00 +33°C° 0 mm 3 mps 719 mmHg 56%
    11:00 +34°C° 0 mm 3 mps 720 mmHg 51%
    12:00 +35°C° 0 mm 3 mps 719 mmHg 47%
    13:00 +36°C° 0 mm 3 mps 718 mmHg 43%
    14:00 +37°C° 0 mm 3 mps 717 mmHg 40%
    15:00 +37°C° 0 mm 3 mps 717 mmHg 39%
    16:00 +37°C° 0 mm 2 mps 717 mmHg 39%
    17:00 +37°C° 0 mm 2 mps 716 mmHg 38%
    18:00 +36°C° 0.1 mm 4 mps 717 mmHg 41%
    19:00 +34°C° 0.1 mm 5 mps 718 mmHg 44%
    20:00 +33°C° 0.1 mm 6 mps 718 mmHg 46%
    21:00 +33°C° 0.1 mm 6 mps 718 mmHg 49%
    22:00 +32°C° 0.1 mm 5 mps 718 mmHg 51%
    23:00 +30°C° 0.1 mm 5 mps 718 mmHg 54%

    22 September, Saturday

    Time Temperature Precipitation Wind Pressure Humidity
    00:00 +30°C° 0.1 mm 4 mps 718 mmHg 55%
    01:00 +30°C° 0.1 mm 3 mps 717 mmHg 56%
    02:00 +30°C° 0.1 mm 2 mps 717 mmHg 57%
    03:00 +29°C° 0.1 mm 2 mps 717 mmHg 58%
    04:00 +29°C° 0.1 mm 1 mps 717 mmHg 59%
    05:00 +29°C° 0.1 mm 1 mps 717 mmHg 60%
    06:00 +29°C° 0.2 mm 1 mps 718 mmHg 58%
    07:00 +30°C° 0.2 mm 1 mps 719 mmHg 55%
    08:00 +31°C° 0.2 mm 1 mps 719 mmHg 52%
    09:00 +32°C° 0 mm 1 mps 720 mmHg 48%
    10:00 +34°C° 0 mm 1 mps 720 mmHg 43%
    11:00 +35°C° 0 mm 1 mps 720 mmHg 38%
    12:00 +36°C° 0 mm 1 mps 719 mmHg 36%
    13:00 +38°C° 0 mm 2 mps 718 mmHg 34%
    14:00 +39°C° 0 mm 2 mps 717 mmHg 32%
    15:00 +39°C° 0 mm 2 mps 717 mmHg 32%
    16:00 +38°C° 0 mm 2 mps 717 mmHg 33%
    17:00 +38°C° 0 mm 2 mps 717 mmHg 33%
    18:00 +37°C° 0 mm 3 mps 717 mmHg 35%
    19:00 +37°C° 0 mm 3 mps 718 mmHg 38%
    20:00 +36°C° 0 mm 3 mps 718 mmHg 40%
    21:00 +35°C° 0 mm 3 mps 718 mmHg 42%
    22:00 +35°C° 0 mm 3 mps 718 mmHg 44%
    23:00 +34°C° 0 mm 3 mps 719 mmHg 46%

    23 September, Sunday

    Time Temperature Precipitation Wind Pressure Humidity
    00:00 +33°C° 0 mm 3 mps 718 mmHg 48%
    01:00 +32°C° 0 mm 2 mps 717 mmHg 50%
    02:00 +31°C° 0 mm 2 mps 717 mmHg 52%
    03:00 +31°C° 0.2 mm 2 mps 717 mmHg 54%
    04:00 +31°C° 0.2 mm 2 mps 717 mmHg 55%
    05:00 +30°C° 0.2 mm 1 mps 717 mmHg 56%
    06:00 +31°C° 0.1 mm 2 mps 718 mmHg 54%
    07:00 +32°C° 0.1 mm 2 mps 719 mmHg 51%
    08:00 +32°C° 0.1 mm 2 mps 720 mmHg 48%
    09:00 +35°C° 0 mm 2 mps 720 mmHg 44%
    10:00 +36°C° 0 mm 2 mps 720 mmHg 40%
    11:00 +37°C° 0 mm 2 mps 720 mmHg 35%
    12:00 +38°C° 0 mm 2 mps 719 mmHg 33%
    13:00 +39°C° 0 mm 2 mps 718 mmHg 31%
    14:00 +40°C° 0 mm 2 mps 717 mmHg 29%
    15:00 +40°C° 0 mm 2 mps 717 mmHg 29%
    16:00 +39°C° 0 mm 3 mps 717 mmHg 29%
    17:00 +39°C° 0 mm 3 mps 717 mmHg 29%
    18:00 +38°C° 0 mm 3 mps 717 mmHg 32%
    19:00 +37°C° 0 mm 3 mps 717 mmHg 34%
    20:00 +36°C° 0 mm 3 mps 717 mmHg 36%
    21:00 +35°C° 1.2 mm 5 mps 718 mmHg 41%
    22:00 +33°C° 1.2 mm 7 mps 718 mmHg 46%
    23:00 +32°C° 1.2 mm 8 mps 719 mmHg 51%

    24 September, Monday

    Time Temperature Precipitation Wind Pressure Humidity
    00:00 +30°C° 0.9 mm 6 mps 718 mmHg 53%
    01:00 +30°C° 0.9 mm 4 mps 718 mmHg 55%
    02:00 +30°C° 0.9 mm 2 mps 717 mmHg 56%
    03:00 +29°C° 0.1 mm 3 mps 717 mmHg 59%
    04:00 +29°C° 0.1 mm 3 mps 717 mmHg 62%
    05:00 +28°C° 0.1 mm 4 mps 717 mmHg 64%
    06:00 +29°C° 0.1 mm 4 mps 718 mmHg 63%
    07:00 +29°C° 0.1 mm 5 mps 719 mmHg 62%
    08:00 +30°C° 0.1 mm 6 mps 719 mmHg 61%
    09:00 +33°C° 0 mm 5 mps 720 mmHg 54%
    10:00 +35°C° 0 mm 4 mps 720 mmHg 47%
    11:00 +37°C° 0 mm 4 mps 720 mmHg 41%
    12:00 +37°C° 0 mm 3 mps 719 mmHg 37%
    13:00 +38°C° 0 mm 3 mps 718 mmHg 34%
    14:00 +39°C° 0 mm 2 mps 717 mmHg 31%
    15:00 +39°C° 0 mm 2 mps 717 mmHg 31%
    16:00 +39°C° 0 mm 1 mps 717 mmHg 30%
    17:00 +39°C° 0 mm 1 mps 717 mmHg 30%
    18:00 +39°C° 0 mm 1 mps 717 mmHg 32%
    19:00 +38°C° 0 mm 2 mps 717 mmHg 35%
    20:00 +37°C° 0 mm 2 mps 717 mmHg 37%
    21:00 +36°C° 0 mm 2 mps 717 mmHg 39%
    22:00 +35°C° 0 mm 3 mps 718 mmHg 41%
    23:00 +35°C° 0 mm 3 mps 718 mmHg 43%
    Show more